Flight Track Log - Related Links

Times and Time Zones

All times are in EDT time to prevent confusion due to time zone crossing. See the AAY841 flight status page for this flight to view local times or setup timezone preferences in your user account.

Time Position Orientation Groundspeed Altitude Reporting Facility
EDT Latitude Longitude Course Direction KTS MPH feet Rate Location/Type
08:52AM 36.5081 -82.3806 118° Southeast 169 194 3,200  Level Atlanta Center
08:53AM 36.4864 -82.3292 118° Southeast 230 265 4,500 2,000 Climbing Atlanta Center
08:54AM 36.4156 -82.3308 181° South 280 322 7,200 2,950 Climbing Atlanta Center
08:55AM 36.3383 -82.3272 178° South 292 336 10,400 2,600 Climbing Atlanta Center
08:56AM 36.2486 -82.3214 177° South 302 348 12,400 2,300 Climbing Atlanta Center
08:57AM 36.1483 -82.3158 177° South 343 395 15,000 2,550 Climbing Atlanta Center
08:58AM 36.0503 -82.3078 176° South 362 417 17,500 2,250 Climbing Atlanta Center
08:59AM 35.9439 -82.3050 179° South 372 428 19,500 2,000 Climbing Atlanta Center
09:00AM 35.8353 -82.2969 177° South 378 435 21,500 1,700 Climbing Atlanta Center
09:01AM 35.7350 -82.2889 176° South 395 455 22,900 750 Climbing Atlanta Center
09:02AM 35.6119 -82.2864 179° South 400 460 23,000 200 Climbing Atlanta Center
09:03AM 35.4969 -82.2711 174° South 405 466 23,300 850 Climbing Atlanta Center
09:04AM 35.3814 -82.2275 163° South 410 472 24,700 1,724 Climbing Atlanta Center
09:09AM 34.7312 -81.9813 188° South 390 449 33,700 1,832 Climbing FlightAware ADS-B (KDZJ)
09:09AM 34.6732 -81.9914 188° South 372 428 34,900 1,104 Climbing FlightAware ADS-B (KDZJ)
09:11AM 34.5106 -82.0207 189° South 390 449 36,000 452 Climbing FlightAware ADS-B (KDZJ)
09:12AM 34.4894 -82.0253 189° South 396 456 36,000  Level Atlanta Center
09:13AM 34.3811 -82.0453 189° South 390 449 36,000  Level Atlanta Center
09:14AM 34.2750 -82.0631 188° South 390 449 36,000  Level Atlanta Center
09:15AM 34.1669 -82.0831 189° South 390 449 36,000  Level Atlanta Center
09:16AM 34.0608 -82.1006 188° South 390 449 36,000  Level Atlanta Center
09:17AM 33.9503 -82.1181 187° South 390 449 36,000  Level Atlanta Center
09:18AM 33.8400 -82.1381 189° South 395 455 36,000  Level Atlanta Center
09:19AM 33.7297 -82.1556 188° South 400 460 36,000  Level Atlanta Center
09:20AM 33.6194 -82.1753 188° South 400 460 36,000  Level Atlanta Center
09:21AM 33.5050 -82.1953 188° South 411 473 36,000  Level Atlanta Center
09:22AM 33.3944 -82.2125 187° South 411 473 36,000  Level Atlanta Center
09:23AM 33.2842 -82.2297 187° South 405 466 36,000  Level Atlanta Center
09:24AM 33.1739 -82.2494 189° South 405 466 36,000  Level Atlanta Center
09:25AM 33.0592 -82.2692 188° South 410 472 36,000  Level Atlanta Center
09:26AM 32.9469 -82.2864 187° South 410 472 36,000  Level Atlanta Center
09:28AM 32.7436 -82.3219 188° South 405 466 36,000  Level Jacksonville Center
09:29AM 32.6289 -82.3350 185° South 411 473 36,000  Level Jacksonville Center
09:30AM 32.5161 -82.3481 186° South 411 473 36,000  Level Jacksonville Center
09:31AM 32.4075 -82.3192 167° South 421 484 36,000  Level Jacksonville Center
09:32AM 32.2694 -82.2881 169° South 450 518 36,000  Level Jacksonville Center
09:33AM 32.1503 -82.2569 168° South 450 518 36,000  Level Jacksonville Center
09:34AM 32.0353 -82.2283 168° South 450 518 36,000  Level Jacksonville Center
09:35AM 31.8972 -82.1903 167° South 458 527 36,000  Level Jacksonville Center
09:36AM 31.7886 -82.1594 166° South 458 527 36,000  Level Jacksonville Center
09:37AM 31.6506 -82.1239 168° South 453 521 36,000  Level Jacksonville Center
09:38AM 31.5356 -82.0931 167° South 459 528 36,000  Level Jacksonville Center
09:39AM 31.4122 -82.0600 167° South 459 528 36,000  Level Jacksonville Center
09:40AM 31.2889 -82.0564 179° South 443 510 36,000  Level Jacksonville Center
09:41AM 31.1722 -82.0792 189° South 438 504 36,000 -154 Level Jacksonville Center
09:46AM 30.8002 -82.5548 230° Southwest 352 405 35,000 -166 Descending FlightAware ADS-B
09:47AM 30.7749 -82.5900 230° Southwest 352 405 35,000  Level FlightAware ADS-B
09:47AM 30.7244 -82.6604 230° Southwest 354 407 35,000  Level FlightAware ADS-B
09:48AM 30.6527 -82.7601 230° Southwest 371 427 35,000  Level FlightAware ADS-B
09:49AM 30.6081 -82.8219 230° Southwest 376 433 35,000  Level FlightAware ADS-B
09:50AM 30.5690 -82.8759 230° Southwest 377 434 35,000  Level FlightAware ADS-B
09:51AM 30.4832 -82.9941 230° Southwest 375 432 35,000  Level FlightAware ADS-B
09:52AM 30.4522 -83.0372 230° Southwest 373 429 35,000  Level Jacksonville Center
09:53AM 30.3853 -83.1308 230° Southwest 373 429 35,000  Level Jacksonville Center
09:54AM 30.3183 -83.2197 229° Southwest 373 429 35,000 -250 Level Jacksonville Center
09:55AM 30.2242 -83.2797 209° Southwest 373 429 34,500 -750 Descending Jacksonville Center
09:56AM 30.1008 -83.3103 192° South 408 470 33,500 -1,000 Descending Jacksonville Center
09:57AM 29.9817 -83.3386 192° South 426 490 32,500 -1,000 Descending Jacksonville Center
09:58AM 29.8606 -83.3667 191° South 438 504 31,500 -1,000 Descending Jacksonville Center
09:59AM 29.7414 -83.3925 191° South 438 504 30,500 -950 Descending Jacksonville Center
10:00AM 29.6286 -83.4183 191° South 432 497 29,600 -950 Descending Jacksonville Center
10:01AM 29.5136 -83.4439 191° South 427 491 28,600 -950 Descending Jacksonville Center
10:02AM 29.4050 -83.4694 192° South 421 484 27,700 -950 Descending Jacksonville Center
10:03AM 29.2944 -83.4950 191° South 411 473 26,700 -1,000 Descending Jacksonville Center
10:04AM 29.1858 -83.4944 180° South 411 473 25,700 -1,050 Descending Jacksonville Center
10:05AM 29.0672 -83.4128 149° Southeast 420 483 24,600 -1,000 Descending Jacksonville Center
10:06AM 28.9631 -83.3483 152° Southeast 420 483 23,700 -1,200 Descending Jacksonville Center
10:07AM 28.8608 -83.2814 150° Southeast 426 490 22,200 -1,750 Descending Jacksonville Center
10:08AM 28.7653 -83.2194 150° Southeast 414 476 20,200 -2,050 Descending Jacksonville Center
10:09AM 28.6672 -83.1600 152° Southeast 403 464 18,100 -2,106 Descending Jacksonville Center
10:10AM 28.5167 -83.0667 151° Southeast 388 447 14,900 -1,911 Descending Tampa TRACON
10:11AM 28.4333 -83.0167 152° Southeast 335 386 13,100 -905 Descending Tampa TRACON
10:12AM 28.3500 -82.9667 152° Southeast 319 367 13,000 -1,000 Descending Tampa TRACON
10:13AM 28.2667 -82.9000 145° Southeast 307 353 11,000 -1,952 Descending Tampa TRACON
10:14AM 28.2000 -82.8667 156° South 280 322 8,900 -1,579 Descending Tampa TRACON
10:15AM 28.1500 -82.8333 150° Southeast 230 265 8,000 -1,050 Descending Tampa TRACON
10:16AM 28.1500 -82.7667 90° East 176 203 6,800 -1,476 Descending Tampa TRACON
10:17AM 28.1500 -82.7000 90° East 174 200 4,900 -1,737 Descending Tampa TRACON
10:18AM 28.1000 -82.7000 180° South 162 186 3,500 -1,252 Descending Tampa TRACON
10:19AM 28.0667 -82.6833 156° South 155 178 2,500 -893 Descending Tampa TRACON
10:20AM 28.0333 -82.6667 156° South 145 167 1,700 -528 Descending Tampa TRACON
10:21AM 27.9833 -82.6833 196° South 140 161 1,400 -528 Descending Tampa TRACON
10:22AM 27.9500 -82.7000 204° Southwest 129 148 600 -800 Descending Tampa TRACON

Login

Don't have an account? Register now (free) for customized features, flight alerts, and more!